Weather History for Smyrna, TN

Change the Weather History Date:

Tuesday, August 13, 2013

  Actual Average Record
Temperature  
Mean Temperature 78 °F -  
Max Temperature 86 °F 84 °F 104 °F (2007)
Min Temperature 69 °F 67 °F 53 °F (2004)
Cooling Degree Days 12    
Growing Degree Days 28 (Base 50)    
Moisture  
Dew Point 71 °F    
Average Humidity 84    
Maximum Humidity 100    
Minimum Humidity 59    
Precipitation  
Precipitation 0.01 in - - ()
Sea Level Pressure  
Sea Level Pressure 29.98 in    
Wind  
Wind Speed 3 mph (NW)    
Max Wind Speed 9 mph    
Max Gust Speed -    
Visibility 10 miles    
Events      
Averages and records for this station are not official NWS values.
T = Trace of Precipitation, MM = Missing Value Source: NWS Daily Summary

Daily Weather History Graph

Daily Weather History Graph

Search for Another Location

Airport:

Trip Planner

Search our weather history database for the weather conditions in past years. The results will help you decide how hot, cold, wet, or windy it might be!

Date:

Astronomy

Aug. 13, 2013 Rise Set
Actual Time 6:03 AM CDT 7:38 PM CDT
Civil Twilight 5:35 AM CDT 8:05 PM CDT
Nautical Twilight 5:02 AM CDT 8:38 PM CDT
Astronomical Twilight 4:28 AM CDT 9:12 PM CDT
Moon 12:42 PM CDT (8/13) 11:28 PM CDT (8/13)
Length of Visible Light 14h 29m
Length of Day
13h 34m
Waxing Crescent, 42% of the Moon is Illuminated
Aug 13
Waxing Crescent
Aug 14
First Quarter
Aug 20
Full
Aug 28
Last Quarter
Sep 5
New

Hourly Weather History & Observations

Time (CDT) Temp. Heat Index Dew Point Humidity Pressure Visibility Wind Dir Wind Speed Gust Speed Precip Events Conditions
12:56 AM 72.0 °F - 72.0 °F 100% 29.97 in 10.0 mi Calm Calm - N/A   Clear
1:56 AM 72.0 °F - 72.0 °F 100% 29.96 in 10.0 mi Calm Calm - N/A   Clear
2:56 AM 70.9 °F - 70.9 °F 100% 29.96 in 10.0 mi Calm Calm - N/A   Partly Cloudy
3:56 AM 70.9 °F - 70.0 °F 97% 29.96 in 10.0 mi Calm Calm - N/A   Clear
4:35 AM 69.8 °F - 69.8 °F 100% 29.95 in 10.0 mi Calm Calm - N/A   Mostly Cloudy
4:56 AM 70.9 °F - 70.9 °F 100% 29.97 in 10.0 mi Calm Calm - N/A   Overcast
5:48 AM 71.6 °F - 71.6 °F 100% 29.96 in 10.0 mi WNW 5.8 mph - N/A   Overcast
5:56 AM 72.0 °F - 70.9 °F 96% 29.98 in 10.0 mi WNW 3.5 mph - N/A   Overcast
6:56 AM 72.0 °F - 72.0 °F 100% 29.99 in 2.5 mi WSW 3.5 mph - N/A   Overcast
7:01 AM 71.6 °F - 71.6 °F 100% 29.98 in 4.0 mi Calm Calm - N/A   Overcast
7:56 AM 73.9 °F - 72.0 °F 93% 30.00 in 10.0 mi Calm Calm - N/A   Overcast
8:56 AM 74.8 °F - 72.0 °F 91% 30.01 in 10.0 mi SW 3.5 mph - N/A   Overcast
9:17 AM 75.2 °F - 73.4 °F 94% 30.00 in 10.0 mi WSW 4.6 mph - N/A   Overcast
9:56 AM 75.9 °F - 72.0 °F 87% 30.02 in 10.0 mi SSW 4.6 mph - N/A   Overcast
10:56 AM 79.0 °F - 73.9 °F 84% 30.02 in 10.0 mi Calm Calm - N/A   Mostly Cloudy
11:14 AM 78.8 °F - 71.6 °F 78% 30.00 in 10.0 mi Calm Calm - N/A   Mostly Cloudy
11:56 AM 81.9 °F 86.6 °F 72.0 °F 72% 30.01 in 10.0 mi Variable 5.8 mph - N/A   Overcast
12:56 PM 82.9 °F 89.4 °F 73.9 °F 74% 29.99 in 10.0 mi WNW 6.9 mph - 0.00 in   Mostly Cloudy
1:03 PM 84.2 °F 89.6 °F 71.6 °F 66% 29.98 in 10.0 mi NW 8.1 mph - 0.01 in   Scattered Clouds
1:56 PM 82.9 °F 87.0 °F 70.0 °F 65% 29.99 in 10.0 mi NNW 8.1 mph - 0.01 in   Scattered Clouds
2:56 PM 86.0 °F 90.7 °F 70.0 °F 59% 29.96 in 10.0 mi North 8.1 mph - N/A   Partly Cloudy
3:56 PM 86.0 °F 91.1 °F 70.9 °F 60% 29.94 in 10.0 mi North 6.9 mph - N/A   Partly Cloudy
4:56 PM 84.9 °F 89.4 °F 70.0 °F 61% 29.94 in 10.0 mi North 9.2 mph - N/A   Partly Cloudy
5:56 PM 82.9 °F 87.5 °F 70.9 °F 67% 29.95 in 10.0 mi NNE 9.2 mph - N/A   Partly Cloudy
6:56 PM 79.9 °F - 70.9 °F 74% 29.95 in 10.0 mi North 8.1 mph - N/A   Partly Cloudy
7:56 PM 77.0 °F - 68.9 °F 76% 29.97 in 10.0 mi North 6.9 mph - N/A   Clear
8:56 PM 74.8 °F - 68.0 °F 79% 29.99 in 10.0 mi North 8.1 mph - N/A   Clear
9:56 PM 73.9 °F - 68.9 °F 84% 30.02 in 10.0 mi North 6.9 mph - N/A   Clear
10:56 PM 73.9 °F - 68.9 °F 84% 30.03 in 10.0 mi North 6.9 mph - N/A   Scattered Clouds
11:56 PM 72.9 °F - 68.9 °F 87% 30.02 in 10.0 mi North 9.2 mph - N/A   Scattered Clouds